カタログに戻る

STARLINK-36303

運用中通信VLEO
NORAD 68969·PAYLOAD·🇺🇸 United States

打ち上げ May 1, 2026 から Cape Canaveral Space Force Station

Loading…

次のパス (今後24時間)

TLE

最新Source: CelesTrak SupGP

元期: Sep 14, 2026, 23:04 UTC

1 68969C 26099U   26257.96159722  .00007949  00000+0  23493-3 0  2576
2 68969  53.1570 101.5165 0001268  87.9366   4.3516 15.34377251    14

AllMySatでSTARLINK-36303をリアルタイム追跡

Download on the App Store